| time (UTC) | temp F | wind direction | speed knots | gust knots | rain 1hr in | rain 24hr in | rain mn in | humidity % | barometer mb |
| 20260504110143 | 46 | 144 | 1.7 | 2.6 | 0.00 | 0.00 | 0.00 | 62 | 1013.0 |
| 20260504100143 | 40 | 332 | 1.7 | 3.5 | 0.00 | 0.00 | 0.00 | 69 | 1013.3 |
| 20260504090122 | 42 | 138 | 0.0 | 0.9 | 0.00 | 0.00 | 0.00 | 67 | 1013.2 |
| 20260504081120 | 43 | 201 | 0.0 | 0.9 | 0.00 | 0.00 | 0.00 | 64 | 1013.1 |
| 20260504080142 | 43 | 308 | 0.0 | 0.9 | 0.00 | 0.00 | 0.00 | 64 | 1013.1 |
| 20260504070121 | 43 | 109 | 0.0 | 0.9 | 0.00 | 0.00 | 0.00 | 65 | 1013.1 |
| 20260504060142 | 43 | 190 | 0.0 | 0.9 | 0.00 | 0.00 | 0.00 | 65 | 1013.2 |
| 20260504050121 | 45 | 159 | 0.0 | 0.0 | 0.00 | 0.00 | 0.00 | 62 | 1013.3 |
| 20260504045121 | 45 | 101 | 0.0 | 0.0 | 0.00 | 0.00 | 0.00 | 62 | 1013.2 |
| 20260504044142 | 45 | 141 | 0.0 | 1.7 | 0.00 | 0.00 | 0.00 | 63 | 1013.2 |
| 20260504043121 | 45 | 140 | 0.0 | 0.9 | 0.00 | 0.00 | 0.00 | 62 | 1013.1 |
| 20260504042121 | 45 | 314 | 0.0 | 0.0 | 0.00 | 0.00 | 0.00 | 61 | 1013.1 |
| 20260504041121 | 46 | 304 | 0.0 | 1.7 | 0.00 | 0.00 | 0.00 | 61 | 1012.9 |
| 20260504040121 | 46 | 172 | 0.0 | 0.0 | 0.00 | 0.00 | 0.00 | 61 | 1012.8 |
| 20260504035121 | 46 | 156 | 0.0 | 0.0 | 0.00 | 0.00 | 0.00 | 60 | 1012.9 |
| 20260504034121 | 46 | 241 | 0.0 | 0.9 | 0.00 | 0.00 | 0.00 | 59 | 1012.7 |
| 20260504033121 | 47 | 326 | 0.0 | 0.9 | 0.00 | 0.00 | 0.00 | 58 | 1012.9 |
| 20260504032121 | 47 | 61 | 0.0 | 0.9 | 0.00 | 0.00 | 0.00 | 57 | 1012.8 |
| 20260504031121 | 47 | 128 | 0.0 | 0.0 | 0.00 | 0.00 | 0.00 | 55 | 1012.6 |
| 20260504030121 | 48 | 123 | 0.0 | 0.0 | 0.00 | 0.00 | 0.00 | 54 | 1012.6 |
| 20260504025121 | 48 | 152 | 0.0 | 0.9 | 0.00 | 0.00 | 0.00 | 53 | 1012.5 |
| 20260504024121 | 48 | 153 | 0.0 | 1.7 | 0.00 | 0.00 | 0.00 | 51 | 1012.5 |
| 20260504023121 | 49 | 28 | 0.0 | 0.9 | 0.00 | 0.00 | 0.00 | 50 | 1012.6 |
| 20260504022121 | 49 | 321 | 0.0 | 0.9 | 0.00 | 0.00 | 0.00 | 49 | 1012.7 |
| 20260504021121 | 49 | 171 | 0.0 | 1.7 | 0.00 | 0.00 | 0.00 | 50 | 1012.6 |
| 20260504020121 | 49 | 97 | 0.9 | 1.7 | 0.00 | 0.00 | 0.00 | 49 | 1012.6 |
| 20260504015121 | 49 | 153 | 0.0 | 1.7 | 0.00 | 0.00 | 0.00 | 48 | 1012.7 |
| 20260504014121 | 50 | 349 | 0.0 | 0.9 | 0.00 | 0.00 | 0.00 | 46 | 1012.4 |
| 20260504013121 | 50 | 143 | 0.0 | 1.7 | 0.00 | 0.00 | 0.00 | 48 | 1012.3 |
| 20260504012121 | 51 | 153 | 0.0 | 0.0 | 0.00 | 0.00 | 0.00 | 45 | 1012.3 |
| 20260504011121 | 52 | 161 | 0.0 | 1.7 | 0.00 | 0.00 | 0.00 | 45 | 1012.2 |
| 20260504010121 | 52 | 150 | 0.0 | 0.9 | 0.00 | 0.00 | 0.00 | 42 | 1012.0 |
| 20260504005142 | 53 | 43 | 0.0 | 0.0 | 0.00 | 0.00 | 0.00 | 40 | 1012.0 |
| 20260504004121 | 54 | 146 | 0.0 | 0.0 | 0.00 | 0.00 | 0.00 | 38 | 1011.9 |
| 20260504003121 | 55 | 266 | 0.0 | 1.7 | 0.00 | 0.00 | 0.00 | 37 | 1011.7 |
| 20260504002121 | 56 | 169 | 0.0 | 1.7 | 0.00 | 0.00 | 0.00 | 36 | 1011.6 |
| 20260504001121 | 56 | 211 | 0.9 | 5.2 | 0.00 | 0.00 | 0.00 | 36 | 1011.5 |
| 20260504000121 | 57 | 244 | 0.9 | 3.5 | 0.00 | 0.00 | 0.00 | 34 | 1011.4 |
| 20260503235142 | 57 | 264 | 0.9 | 2.6 | 0.00 | 0.00 | 0.00 | 33 | 1011.2 |
| 20260503234121 | 58 | 294 | 2.6 | 5.2 | 0.00 | 0.00 | 0.00 | 32 | 1011.1 |
| 20260503233142 | 58 | 268 | 1.7 | 4.3 | 0.00 | 0.00 | 0.00 | 32 | 1011.1 |
| 20260503232121 | 58 | 290 | 2.6 | 7.8 | 0.00 | 0.00 | 0.00 | 32 | 1011.1 |
| 20260503231121 | 59 | 291 | 2.6 | 6.1 | 0.00 | 0.00 | 0.00 | 32 | 1011.1 |
| 20260503230121 | 59 | 266 | 1.7 | 6.1 | 0.00 | 0.00 | 0.00 | 32 | 1011.0 |
| 20260503225121 | 59 | 281 | 2.6 | 7.8 | 0.00 | 0.00 | 0.00 | 31 | 1010.9 |
| 20260503224121 | 59 | 317 | 1.7 | 5.2 | 0.00 | 0.00 | 0.00 | 32 | 1011.0 |
| 20260503223121 | 60 | 312 | 2.6 | 5.2 | 0.00 | 0.00 | 0.00 | 30 | 1010.9 |
| 20260503222121 | 60 | 280 | 2.6 | 8.7 | 0.00 | 0.00 | 0.00 | 30 | 1011.0 |
| 20260503221121 | 60 | 280 | 3.5 | 8.7 | 0.00 | 0.00 | 0.00 | 30 | 1010.9 |
| 20260503220121 | 60 | 303 | 2.6 | 7.0 | 0.00 | 0.00 | 0.00 | 31 | 1010.9 |
| 20260503215121 | 60 | 286 | 2.6 | 8.7 | 0.00 | 0.00 | 0.00 | 30 | 1011.0 |
| 20260503214121 | 59 | 290 | 3.5 | 10.4 | 0.00 | 0.00 | 0.00 | 30 | 1010.9 |
| 20260503213121 | 59 | 321 | 3.5 | 8.7 | 0.00 | 0.00 | 0.00 | 30 | 1011.0 |
| 20260503212121 | 60 | 335 | 1.7 | 3.5 | 0.00 | 0.00 | 0.00 | 31 | 1011.0 |
| 20260503211121 | 58 | 285 | 3.5 | 7.8 | 0.00 | 0.00 | 0.00 | 29 | 1010.8 |
| 20260503210121 | 59 | 298 | 2.6 | 7.8 | 0.00 | 0.00 | 0.00 | 30 | 1011.0 |
| 20260503205121 | 58 | 287 | 2.6 | 7.8 | 0.00 | 0.00 | 0.00 | 31 | 1010.9 |
| 20260503204142 | 59 | 301 | 3.5 | 10.4 | 0.00 | 0.00 | 0.00 | 31 | 1011.0 |
| 20260503203122 | 59 | 306 | 3.5 | 7.8 | 0.00 | 0.00 | 0.00 | 32 | 1011.0 |
| 20260503202122 | 58 | 285 | 4.3 | 11.3 | 0.00 | 0.00 | 0.00 | 30 | 1011.0 |
| 20260503201122 | 58 | 309 | 5.2 | 9.6 | 0.00 | 0.00 | 0.00 | 31 | 1011.3 |
| 20260503200121 | 58 | 276 | 6.1 | 11.3 | 0.00 | 0.00 | 0.00 | 30 | 1011.3 |
| 20260503195121 | 58 | 313 | 5.2 | 9.6 | 0.00 | 0.00 | 0.00 | 31 | 1011.5 |
| 20260503194121 | 58 | 312 | 2.6 | 5.2 | 0.00 | 0.00 | 0.00 | 33 | 1011.5 |
| 20260503193143 | 57 | 292 | 3.5 | 7.0 | 0.00 | 0.00 | 0.00 | 32 | 1011.7 |
| 20260503192122 | 57 | 293 | 3.5 | 8.7 | 0.00 | 0.00 | 0.00 | 33 | 1011.8 |
| 20260503191122 | 58 | 295 | 3.5 | 9.6 | 0.00 | 0.00 | 0.00 | 32 | 1011.7 |
| 20260503190143 | 56 | 275 | 2.6 | 14.8 | 0.00 | 0.00 | 0.00 | 33 | 1011.9 |
| 20260503185122 | 57 | 290 | 4.3 | 9.6 | 0.00 | 0.00 | 0.00 | 34 | 1012.0 |
| 20260503184122 | 56 | 280 | 3.5 | 11.3 | 0.00 | 0.00 | 0.00 | 36 | 1011.9 |
| 20260503183122 | 56 | 299 | 3.5 | 10.4 | 0.00 | 0.00 | 0.00 | 34 | 1012.1 |
| 20260503182143 | 56 | 275 | 4.3 | 12.2 | 0.00 | 0.00 | 0.00 | 33 | 1012.1 |
| 20260503181143 | 56 | 282 | 3.5 | 9.6 | 0.00 | 0.00 | 0.00 | 33 | 1012.1 |
| 20260503180143 | 55 | 293 | 4.3 | 11.3 | 0.00 | 0.00 | 0.00 | 33 | 1012.2 |
| 20260503175122 | 55 | 305 | 4.3 | 10.4 | 0.00 | 0.00 | 0.00 | 35 | 1012.2 |
| 20260503174121 | 55 | 353 | 3.5 | 10.4 | 0.00 | 0.00 | 0.00 | 33 | 1012.2 |
| 20260503173122 | 55 | 289 | 4.3 | 7.8 | 0.00 | 0.00 | 0.00 | 34 | 1012.2 |
| 20260503172122 | 54 | 313 | 4.3 | 11.3 | 0.00 | 0.00 | 0.00 | 33 | 1012.6 |
| 20260503171122 | 54 | 305 | 3.5 | 9.6 | 0.00 | 0.00 | 0.00 | 34 | 1012.3 |
| 20260503170122 | 54 | 285 | 3.5 | 9.6 | 0.00 | 0.00 | 0.00 | 33 | 1012.5 |
| 20260503160141 | 52 | 6 | 3.5 | 10.4 | 0.00 | 0.00 | 0.00 | 36 | 1012.8 |
| 20260503150121 | 50 | 302 | 3.5 | 7.8 | 0.00 | 0.00 | 0.00 | 43 | 1013.1 |
| 20260503140121 | 47 | 349 | 1.7 | 3.5 | 0.00 | 0.00 | 0.00 | 53 | 1013.3 |
| 20260503131120 | 45 | 295 | 3.5 | 8.7 | 0.00 | 0.00 | 0.00 | 55 | 1013.2 |
| 20260503130120 | 46 | 320 | 1.7 | 7.8 | 0.00 | 0.00 | 0.00 | 54 | 1013.1 |
| 20260503120121 | 46 | 311 | 1.7 | 3.5 | 0.00 | 0.00 | 0.00 | 56 | 1012.7 |